Location: Cahas Mountain Overlook
(37.0833°N, 80.1000°W)
Time: 01:01:17
(UTC-05:00)

A-11 Canister half - All Passes

Search period start: 29 November 2023 00:00
Search period end: 09 December 2023 00:00
Orbit: 1514 x 1685 km, 47.2° (Epoch: 28 November)

Date Brightness Start Highest point End Pass type
(mag) Time Alt. Az. Time Alt. Az. Time Alt. Az.
29 Nov - 00:59:12 10° SW 01:08:32 60° SE 01:18:14 10° ENE visible
29 Nov - 03:04:01 10° WSW 03:13:40 62° NNW 03:23:40 10° ENE visible
29 Nov - 05:10:45 10° WNW 05:20:18 47° N 05:30:03 10° ENE visible
29 Nov - 07:16:36 10° WNW 07:26:44 72° NNE 07:36:54 10° ESE daylight
29 Nov - 09:22:04 10° WNW 09:31:33 47° SW 09:41:00 10° SSE daylight
29 Nov - 22:38:45 10° SE 22:42:19 13° ESE 22:45:56 10° E night (unlit)
30 Nov - 00:36:23 10° SSW 00:45:36 56° SE 00:55:11 10° ENE visible
30 Nov - 02:40:59 10° WSW 02:50:37 64° NNW 03:00:38 10° ENE visible
30 Nov - 04:47:41 10° WNW 04:57:12 47° N 05:06:55 10° ENE visible
30 Nov - 06:53:36 10° WNW 07:03:41 69° NNE 07:13:51 10° ESE daylight
30 Nov - 08:58:59 10° WNW 09:08:36 50° SW 09:18:10 10° SSE daylight
30 Nov - 11:10:32 10° WSW 11:11:54 10° WSW 11:13:16 10° SW daylight
30 Nov - 22:17:12 10° SE 22:19:29 11° ESE 22:21:46 10° ESE night (unlit)
01 Dec - 00:13:34 10° SSW 00:22:40 53° SE 00:32:08 10° ENE night (unlit)
01 Dec - 02:17:57 10° WSW 02:27:35 66° NNW 02:37:36 10° ENE visible
01 Dec - 04:24:38 10° WNW 04:34:06 47° N 04:43:48 10° ENE visible
01 Dec - 06:30:36 10° WNW 06:40:38 67° NNE 06:50:47 10° ESE visible
01 Dec - 08:35:57 10° WNW 08:45:39 53° SW 08:55:21 10° SSE daylight
01 Dec - 10:45:50 10° WSW 10:49:02 12° WSW 10:52:14 10° SW daylight
01 Dec - 23:50:46 10° SSW 23:59:45 49° SE 00:09:04 10° ENE night (unlit)
02 Dec - 01:54:56 10° WSW 02:04:33 68° NNW 02:14:34 10° ENE visible
02 Dec - 04:01:34 10° WNW 04:11:00 47° N 04:20:42 10° ENE visible
02 Dec - 06:07:35 10° WNW 06:17:35 65° NNE 06:27:42 10° ESE visible
02 Dec - 08:12:54 10° WNW 08:22:42 56° SW 08:32:30 10° SSE daylight
02 Dec - 10:21:54 10° W 10:26:09 13° WSW 10:30:24 10° SSW daylight
02 Dec - 23:28:00 10° SSW 23:36:50 46° SE 23:46:00 10° ENE night (unlit)
03 Dec - 01:31:55 10° WSW 01:41:32 71° NNW 01:51:32 10° ENE visible
03 Dec - 03:38:30 10° WNW 03:47:55 47° N 03:57:36 10° ENE visible
03 Dec - 05:44:35 10° WNW 05:54:31 62° NNE 06:04:37 10° ESE visible
03 Dec - 07:49:53 10° WNW 07:59:44 60° SW 08:09:37 10° SSE daylight
03 Dec - 09:58:14 10° W 10:03:17 15° WSW 10:08:20 10° SSW daylight
03 Dec - 23:05:14 10° SSW 23:13:56 43° SE 23:22:55 10° ENE night (unlit)
04 Dec - 01:08:55 10° WSW 01:18:30 73° NNW 01:28:30 10° ENE visible
04 Dec - 03:15:26 10° WNW 03:24:49 47° N 03:34:29 10° ENE visible
04 Dec - 05:21:35 10° WNW 05:31:28 60° NNE 05:41:31 10° E visible
04 Dec - 07:26:51 10° WNW 07:36:46 63° SW 07:46:44 10° SE daylight
04 Dec - 09:34:42 10° W 09:40:24 17° WSW 09:46:06 10° SSW daylight
04 Dec - 22:42:30 10° SSW 22:51:01 40° SE 22:59:49 10° ENE night (unlit)
05 Dec - 00:45:56 10° WSW 00:55:30 76° NNW 01:05:29 10° ENE visible
05 Dec - 02:52:22 10° WNW 03:01:43 48° N 03:11:23 10° ENE visible
05 Dec - 04:58:35 10° WNW 05:08:24 59° NNE 05:18:24 10° E visible
05 Dec - 07:03:50 10° WNW 07:13:48 67° SW 07:23:49 10° SE daylight
05 Dec - 09:11:17 10° W 09:17:30 18° WSW 09:23:45 10° SSW daylight
05 Dec - 22:19:48 10° SSW 22:28:08 37° SE 22:36:44 10° ENE night (unlit)
06 Dec - 00:22:57 10° WSW 00:32:30 79° NNW 00:42:27 10° ENE night (unlit)
06 Dec - 02:29:18 10° W 02:38:38 48° N 02:48:17 10° ENE visible
06 Dec - 04:35:34 10° WNW 04:45:20 57° NNE 04:55:18 10° E visible
06 Dec - 06:40:50 10° WNW 06:50:49 70° SW 07:00:54 10° SE visible
06 Dec - 08:47:55 10° W 08:54:37 20° SW 09:01:20 10° SSW daylight
06 Dec - 21:57:06 10° S 22:05:15 34° SE 22:13:36 10° ENE night (unlit)
06 Dec - 23:59:59 10° WSW 00:09:30 83° NNW 00:19:26 10° ENE night (unlit)
07 Dec - 02:06:15 10° W 02:15:33 48° N 02:25:11 10° ENE visible
07 Dec - 04:12:33 10° WNW 04:22:16 55° NNE 04:32:11 10° E visible
07 Dec - 06:17:49 10° WNW 06:27:50 74° SW 06:37:57 10° SE visible
07 Dec - 08:24:37 10° W 08:31:43 22° SW 08:38:52 10° S daylight
07 Dec - 21:34:27 10° S 21:42:21 32° SE 21:50:28 10° ENE night (unlit)
07 Dec - 23:37:01 10° WSW 23:46:30 86° NNW 23:56:24 10° ENE night (unlit)
08 Dec - 01:43:11 10° W 01:52:28 49° N 02:02:06 10° ENE visible
08 Dec - 03:49:33 10° WNW 03:59:11 54° NNE 04:09:04 10° E visible
08 Dec - 05:54:49 10° WNW 06:04:51 78° SW 06:15:01 10° SE visible
08 Dec - 08:01:22 10° WNW 08:08:50 24° SW 08:16:19 10° S daylight
08 Dec - 21:11:49 10° S 21:19:29 30° SE 21:27:19 10° ENE visible
08 Dec - 23:14:04 10° SW 23:23:32 90° NW 23:33:24 10° ENE night (unlit)
